Regional Weather Roundup
Issued by NWS

Home | Current Version | Previous Version | Text Only | Print | Product List | Glossary Off
Versions: 1 2 3 4 5 6 7 8 9 10 11 12 13 14 15 16 17 18 19 20 21 22 23 24 25 26 27 28 29 30 31 32 33 34 35 36 37 38 39 40 41 42 43 44 45 46 47 48 49

000
ASUS43 KDMX 210107
RWRIA

WEATHER ROUNDUP FOR IOWA
NATIONAL WEATHER SERVICE DES MOINES IA
800 PM CDT SAT SEP 20 2014

NOTE: "FAIR" INDICATES FEW OR NO CLOUDS BELOW 12,000 FEET WITH NO
SIGNIFICANT WEATHER AND/OR OBSTRUCTIONS TO VISIBILITY.

* - THESE STATIONS ARE NOT NWS STATIONS...THUS NOT UNDER NWS
QUALITY CONTROL.  THEY ALSO DO NOT REPORT WEATHER SUCH
AS PRECIPITATION OR FOG.

IAZ001>003-012>014-020>022-031>034-043>046-210200-
   NORTHWEST IOWA

CITY           SKY/WX    TMP DP  RH WIND       PRES   REMARKS
CARROLL *      CLEAR     72  59  64 W8        29.88S
CHEROKEE *     CLEAR     73  52  46 N22G31    29.92R
DENISON *      CLEAR     70  59  68 SW3       29.89R
LE MARS *      CLEAR     73  52  46 N13G20    29.95R
ORANGE CITY *  CLEAR     72  55  56 N14G24    29.95R
SHELDON *      CLEAR     66  55  68 N9G17     29.94R
SIOUX CITY     CLEAR     76  52  43 NW14      29.92R
SPENCER        PTCLDY    66  49  54 N23G32    29.93R
STORM LAKE *   CLEAR     70  61  73 W9        29.89R
$$

IAZ055>058-069>071-079>083-090>094-210200-
   SOUTHWEST IOWA

CITY           SKY/WX    TMP DP  RH WIND       PRES   REMARKS
ATLANTIC *     CLEAR     70  61  73 W7        29.91S
AUDUBON *      CLEAR     66  57  72 W3        29.92S
CLARINDA *     CLEAR     70  63  78 CALM      29.95R
COUNCIL BLFS * CLEAR     73  59  60 SW3       29.92S
CRESTON *      CLEAR     72  63  73 W8        29.93R
HARLAN  *      CLEAR     66  61  82 SW6       29.95S
LAMONI         CLEAR     72  66  81 W8        29.91S
RED OAK *      CLEAR     66  61  82 W5        29.93S
SHENANDOAH *   CLEAR     73  61  64 CALM      29.94S
$$

IAZ047>049-059>061-072>074-084-210200-
   CENTRAL IOWA

CITY           SKY/WX    TMP DP  RH WIND       PRES   REMARKS
AMES           CLEAR     70  59  68 W8        29.85R
ANKENY *       CLEAR     73  59  60 W7        29.86R
CHARITON *     CLEAR     73  68  83 W7        29.89R
DES MOINES     PTCLDY    74  58  57 W7        29.86S
GRINNELL*      CLEAR     72  57  60 W9        29.85R
KNOXVILLE *    CLEAR     72  63  73 W9        29.86R
MARSHALLTOWN   CLEAR     70  59  68 W9        29.82R
PELLA *        CLEAR     72  61  68 W7        29.86S
PERRY *          N/A     70  59  68 W8        29.87S
$$

IAZ004>006-015-016-023>025-035-036-210200-
   NORTH CENTRAL IOWA

CITY           SKY/WX    TMP DP  RH WIND       PRES   REMARKS
ALGONA *       PTCLDY    66  55  68 N17G24    29.90R
CLARION *        N/A     73  57  56 W10       29.82R
ESTHERVILLE    PTCLDY    62  53  72 N18G31    29.93R
FORT DODGE *   PTCLDY    72  57  60 W10       29.85R
MASON CITY     RAIN      61  59  93 N15G24    29.86R
FOREST CITY *  MOCLDY    61  59  94 N14       29.87R
IOWA FALLS *     N/A     70  57  64 SW9       29.82S
$$

IAZ007>011-017>019-026>030-037>042-050>054-066-210200-
   NORTHEAST IOWA

CITY           SKY/WX    TMP DP  RH WIND       PRES   REMARKS
CEDAR RAPIDS   CLEAR     70  65  84 SW7       29.80S
CHARLES CITY * LGT RAIN  63  61  94 NW20G36   29.84R
CLINTON *      MOCLDY    72  64  78 SW12G18   29.82S
DECORAH *      FOG       63  59  88 W18G45    29.80R VSB 3/4
DUBUQUE        CLEAR     66  64  93 SW5       29.78F
MONTICELLO *   CLEAR     66  64  94 SW3       29.78S
OELWEIN *      CLEAR     68  59  73 SW9       29.77F
WATERLOO       CLEAR     71  57  61 SW10      29.76F
$$

IAZ064-065-067-068-078-210200-
   EAST CENTRAL IOWA

CITY           SKY/WX    TMP DP  RH WIND       PRES   REMARKS
DAVENPORT      CLEAR     70  65  84 SW9       29.81F
IOWA CITY      CLEAR     72  65  78 SW6       29.82S
MT. PLEASANT * CLEAR     73  66  78 SW6       29.85S
MUSCATINE *    CLEAR     75  66  73 SW12      29.82S
QUAD CITIES    PTCLDY    71  67  87 SW5       29.80F
$$

IAZ062-063-075>077-085>089-095>099-210200-
   SOUTHEAST IOWA

CITY           SKY/WX    TMP DP  RH WIND       PRES   REMARKS
BURLINGTON     LGT RAIN  73  68  84 SW6       29.85S
FAIRFIELD *    CLEAR     73  68  83 SW7       29.85S
FORT MADISON * CLEAR     75  70  83 SW7       29.87S
KEOKUK *       PTCLDY    73  70  88 W7        29.85F
OSKALOOSA *      N/A     72  68  88 W7        29.85S
CENTERVILLE *  CLEAR     72  70  94 SW6       29.90S
OTTUMWA        CLEAR     72  67  84 SW7       29.85S
WASHINGTON *   CLEAR     73  68  83 SW8       29.83S
$$

ABBREVIATIONS USED IN REMARKS
   TC - TEMPERATURES IN CELSIUS
  WCI - WIND CHILL INDEX
   HX - HEAT INDEX
  VSB - VISIBILITY
$$




USA.gov is the U.S. government's official web portal to all federal, state and local government web resources and services.